Regional Weather Roundup
Issued by NWS

Home | Current Version | Previous Version | Graphics & Text | Print | Product List | Glossary On
Versions: 1 2 3 4 5 6 7 8 9 10 11 12 13 14 15 16 17 18 19 20 21 22 23 24 25 26 27 28 29 30 31 32 33 34 35 36 37 38 39 40 41 42 43 44 45 46 47 48 49 50
000
ASUS43 KIND 062209
RWRIN

WEATHER ROUNDUP FOR INDIANA
NATIONAL WEATHER SERVICE INDIANAPOLIS IN
600 PM EDT FRI MAY 06 2016

NOTE: "FAIR" INDICATES FEW OR NO CLOUDS BELOW 12,000 FEET WITH NO
SIGNIFICANT WEATHER AND/OR OBSTRUCTIONS TO VISIBILITY.

* - STATION DOES NOT REPORT WEATHER SUCH AS PRECIPITATION OR FOG.

+ - STATION NOT QUALITY CONTROLLED BY THE NATIONAL WEATHER SERVICE.
    USE DATA WITH CAUTION...ESPECIALLY DEWPOINT AND RELATIVE
    HUMIDITY OBSERVATIONS.

INZ001>003-010>013-019-020-062300-
NORTHWEST INDIANA

CITY           SKY/WX    TMP DP  RH WIND       PRES   REMARKS
GARY /AIRPORT/ MOSUNNY   81  54  39 S9        29.83F
KNOX *+        SUNNY     73  27  17 MISG        N/A
LA PORTE +     SUNNY     76  44  31 W9        29.86F
MICHIGAN CITY+ SUNNY     72  45  37 SW8       29.85F
MONTICELLO +   PTSUNNY   73  33  22 W8        29.87F
RENSSELAER +   SUNNY     77  36  22 SW9       29.86F
VALPARAISO     SUNNY     75  44  33 SW6       29.85F

$$

LMZ046-743>745-062300-
SOUTHERN LAKE MICHIGAN

STATION/POSITION TIME  TEMP    WIND        PRES    WAVE
                       AIR SEA DIR/SP/G            HT
                 (UTC) (F)     (DEG/KT/KT) (MB)    (FT)
BURNS HARBOR     2100   70     250/ 10/ 12 1011.5F
MICHIGAN CITY    2100   66     350/  3/  3   N/A

$$

INZ004-005-014>016-021>024-062300-
NORTH CENTRAL INDIANA

CITY           SKY/WX    TMP DP  RH WIND       PRES   REMARKS
ELKHART        SUNNY     73  48  40 W7        29.86
GOSHEN         MOSUNNY   68  46  45 W10       29.87F
LOGANSPORT +   SUNNY     70  41  35 W8        29.89F
PERU/GRISSOM   MOSUNNY   71  44  37 W9        29.87F
ROCHESTER +    SUNNY     73  41  31 W9        29.87F
SOUTH BEND     SUNNY     73  42  32 W8        29.86F
WARSAW +       SUNNY     72  43  35 W12       29.87F

$$

INZ006>009-017-018-025>027-062300-
NORTHEAST INDIANA

CITY           SKY/WX    TMP DP  RH WIND       PRES   REMARKS
ANGOLA *+        N/A     72  45  37 SW7       29.86F
AUBURN +       SUNNY     70  36  28 W10       29.88S
FORT WAYNE     MOSUNNY   71  41  33 W10       29.88F
HUNTINGTON +   SUNNY    N/A N/A N/A W8        29.88F

$$

INZ028-029-035-036-043>045-051>053-062300-
WEST CENTRAL INDIANA

CITY           SKY/WX    TMP DP  RH WIND       PRES   REMARKS
CRAWFORDSVL +  MOSUNNY   68  43  40 W9        29.91F
GREENCASTLE +  SUNNY     72  46  40 NW5       29.92F
LAFAYETTE      SUNNY     73  41  31 W9        29.88F
TERRE HAUTE    MOSUNNY   73  41  31 W10       29.92F

$$

INZ030>032-037>040-046>048-054>057-064-065-062300-
CENTRAL INDIANA

CITY           SKY/WX    TMP DP  RH WIND       PRES   REMARKS
CP ATTERBURY + SUNNY     70  41  35 NW7       29.92F
COLUMBUS       SUNNY     70  41  35 NW10      29.92F
FRANKFORT +      N/A     73  17  11 W8G16     29.91F
GREENWOOD *+   SUNNY     70  41  35 W8        29.92F
INDIANAPOLIS   MOSUNNY   71  40  32 W10       29.90F
-EAGLE CREEK   SUNNY     71  42  35 NW12      29.90F
KOKOMO *+      SUNNY     72  45  37 W12       29.89F
MARION +       SUNNY     70  40  33 NW8       29.90F
SHELBYVILLE    SUNNY     72  41  32 W13       29.90F
ZIONSVILLE +   SUNNY     70  43  38 W9        29.91F

$$

INZ033-034-041-042-049-050-058-059-062300-
EAST CENTRAL INDIANA

CITY           SKY/WX    TMP DP  RH WIND       PRES   REMARKS
MUNCIE         SUNNY     70  42  36 W12       29.89F

$$

INZ060-061-067>069-081>083-085>088-062300-
SOUTHWEST INDIANA

CITY           SKY/WX    TMP DP  RH WIND       PRES   REMARKS
EVANSVILLE     SUNNY     72  42  34 W8        29.96F
HUNTINGBURG *+ SUNNY     72  46  40 NW8       29.95F
WASHINGTON +   SUNNY     73  45  37 W9        29.94F

$$

INZ062-063-066-070>080-084-089>092-062300-
SOUTH CENTRAL AND SOUTHEAST INDIANA

CITY           SKY/WX    TMP DP  RH WIND       PRES   REMARKS
BLOOMINGTON    SUNNY     72  40  31 W9        29.92F
MADISON *+     SUNNY     70  32  24 NW9       29.93F
NORTH VERNON + SUNNY     68  48  49 NW9       29.91F
SEYMOUR +      SUNNY     73  45  35 NW9       29.90F

$$





USA.gov is the U.S. government's official web portal to all federal, state and local government web resources and services.